User: anonymous   Login
Location: Glasgow
(55.8642°N, 4.2518°W)
Time: 23:24:14
(UTC+01:00)
Language:

LilacSat-2 - Orbit

View from above orbital plane
View from above orbital plane
View from above satellite
View from above satellite

Ground track
Ground track

The orbit data is extracted from the following two-line orbital elements,

1 40908U 15049K   18142.95596219 +.00000351 +00000-0 +23167-4 0  9994
2 40908 097.4684 146.0020 0017622 114.4791 245.8280 15.13495637147554
Epoch (UTC): 22 May 2018 22:56:35
Eccentricity: 0.0017622
inclination: 97.4684°
perigee height: 513 km
apogee height: 538 km
right ascension of ascending node: 146.0020°
argument of perigee: 114.4791°
revolutions per day: 15.13495637
mean anomaly at epoch: 245.8280°
orbit number at epoch: 14755

The dashed part of the orbit path shows where the satellite is in the earth's shadow,  

DLR